GFSNIL_sfc_dewp_144.txt.gz
Dewpoint
38 38 38 37 37 38 38 39 38 39 39 40 40 40 40 42 43 43 45 44 44 43
38 37 37 36 36 36 35 33 32 33 33 34 36 36 37 40 40 41 42 43 42 41
38 36 35 34 33 30 29 29 29 30 30 31 33 33 33 36 38 38 40 38 38 37
38 36 34 31 28 27 27 27 28 29 29 30 31 32 31 32 34 34 35 35 35 34
38 35 31 29 26 26 25 25 26 27 28 29 30 31 29 30 31 31 33 33 33 32
37 32 29 27 27 26 24 23 23 24 26 28 30 30 28 28 29 29 30 31 31 31
36 32 28 28 27 27 25 23 22 23 24 28 29 31 31 29 27 27 27 31 31 31
36 33 30 29 27 25 24 24 24 24 25 28 29 31 31 31 29 27 28 29 29 31
35 32 28 28 28 25 24 22 23 24 27 30 30 32 32 30 29 29 28 28 28 28
36 32 29 29 28 26 25 24 22 24 27 28 30 32 31 30 30 28 27 26 26 25
35 33 29 28 27 25 24 23 24 24 25 27 29 33 31 29 29 26 26 25 23 24
36 32 29 27 26 25 22 22 24 25 25 25 26 33 32 30 28 26 24 23 22 24
36 32 29 27 27 27 23 22 25 24 25 27 24 33 32 31 28 24 24 24 23 25
36 31 28 28 28 27 26 25 24 23 23 24 25 25 32 32 29 26 25 24 23 24

GFSNIL_sfc_dewp_150.txt.gz
Dewpoint
41 40 38 37 37 37 37 37 35 32 31 32 34 34 34 40 40 40 42 41 40 38
41 39 38 38 37 36 36 34 30 29 29 30 33 32 33 36 36 38 38 37 37 37
41 39 38 37 36 35 33 30 28 28 29 30 31 31 31 33 35 35 35 35 33 34
41 40 38 36 35 33 30 29 28 28 28 29 30 31 29 30 32 33 32 32 32 32
41 40 38 35 34 31 28 28 28 28 28 28 30 31 28 28 30 31 31 31 31 30
41 40 38 36 33 30 27 26 25 26 26 28 30 30 28 28 29 30 31 31 31 30
41 41 40 37 33 30 28 25 24 23 24 27 29 30 30 29 28 27 29 31 31 30
42 41 40 37 33 29 28 27 25 24 24 26 29 30 30 30 29 27 28 30 30 31
41 40 39 37 33 30 28 27 26 26 27 29 29 34 35 30 29 29 28 27 26 26
40 40 39 37 33 30 28 26 25 25 26 26 30 35 36 34 29 29 28 28 27 24
38 38 38 36 32 31 28 26 25 24 24 25 28 34 36 34 29 29 29 28 26 24
37 37 37 35 33 31 28 26 25 24 25 26 27 33 36 34 29 28 27 26 25 24
36 37 36 36 34 31 28 27 26 24 26 27 26 31 35 35 31 27 26 24 24 28
35 35 36 35 33 30 28 27 25 24 26 26 28 29 33 36 31 28 27 25 24 24

GFSNIL_sfc_dewp_153.txt.gz
Dewpoint
42 42 41 39 37 37 37 37 37 33 31 30 32 34 32 38 39 39 39 38 39 37
42 41 40 38 37 37 37 36 34 29 29 29 31 32 31 34 36 37 37 36 36 36
41 41 40 38 37 37 36 35 30 28 28 29 30 32 30 31 35 35 35 35 33 34
41 41 40 38 37 36 35 32 30 29 28 28 29 30 29 30 33 33 32 32 31 31
41 41 40 39 37 36 33 31 29 29 28 28 29 30 30 28 30 31 32 31 31 30
41 40 40 39 37 35 32 29 27 27 27 27 29 30 30 28 29 30 31 31 31 30
41 40 40 40 38 35 32 28 26 25 25 26 27 30 29 29 28 28 30 31 31 30
41 41 40 39 38 36 33 30 27 25 24 24 26 29 30 30 30 28 27 30 31 31
39 40 40 40 39 36 33 30 28 26 26 27 24 31 35 32 29 29 28 28 28 27
37 38 39 39 38 36 33 30 28 27 27 26 26 32 35 36 29 29 29 28 28 26
36 37 37 37 37 35 33 30 29 27 26 26 26 32 34 37 31 30 29 29 28 26
35 35 35 36 36 35 32 30 29 27 26 25 25 32 34 35 29 29 30 28 27 26
35 34 34 35 35 35 32 30 29 27 26 28 24 31 34 36 31 32 32 29 25 29
33 33 33 33 33 33 32 30 28 27 26 25 27 27 33 36 35 34 32 31 26 25

GFSNIL_sfc_dewp_156.txt.gz
Dewpoint
42 42 41 41 40 38 37 36 37 36 33 30 31 34 32 36 38 38 38 36 37 36
42 41 41 41 39 38 37 37 37 35 30 29 30 32 31 33 35 35 36 36 36 35
42 42 41 40 39 38 37 36 35 32 29 28 29 31 31 30 34 34 35 35 33 34
41 41 41 40 39 38 37 36 34 32 29 28 28 29 31 30 32 33 33 32 32 31
41 41 40 40 40 38 37 35 34 31 29 28 28 29 30 30 29 32 32 31 31 30
39 39 40 39 39 39 37 35 32 30 28 28 28 28 30 30 29 29 31 32 31 30
35 38 39 39 39 38 37 35 31 29 27 27 27 27 29 29 28 28 29 31 31 30
35 38 39 39 39 38 37 36 33 30 27 25 25 25 29 29 29 29 28 29 31 32
35 37 38 38 38 38 37 35 33 30 29 27 24 29 32 32 30 30 29 28 29 30
34 35 36 37 37 36 36 35 33 31 29 28 27 31 33 35 31 29 29 29 29 28
34 34 34 35 35 35 35 34 33 32 30 28 27 32 34 35 33 29 29 29 29 27
34 33 33 33 34 34 34 33 32 30 30 28 28 32 34 34 32 30 29 29 28 28
33 33 32 33 33 33 33 33 32 31 29 30 28 30 33 35 32 29 30 33 33 35
32 32 32 32 31 31 30 29 29 29 28 27 27 27 32 34 32 31 32 33 32 32